Theta_e
330 329 330 327 326 323 320 315 300 305 303 298 300 302 301 309 310 306 306 306 302 308 309 306 305 302 305 304 304 302 303 300 303 299 301 310 319 317 318 327 324 325 330 326 329 337 342 341 341 340 341 341 340 340 339 338 338 337 337 336 336 335 335 335 334 334 335 335 335 335 334 333 333 333 332 332 331 331 329 332 332 331 330 330 330 329 328 330 329 328 329 329 329 330 330 330 331
327 330 328 327 324 318 311 313 301 300 301 298 300 304 304 307 308 305 306 306 307 305 306 308 307 307 303 301 301 302 303 305 307 307 312 312 311 312 314 325 324 324 329 329 329 335 341 341 340 340 340 341 341 340 339 338 338 337 336 336 336 335 335 335 335 334 335 335 335 334 334 334 333 333 332 332 330 332 328 332 330 331 329 330 330 329 330 330 329 327 328 328 328 330 330 330 331
323 326 326 326 323 317 312 310 297 298 295 294 299 303 309 305 305 307 309 310 311 304 306 307 304 302 303 301 300 301 302 307 307 308 307 312 309 312 315 322 325 325 328 329 330 335 340 341 341 340 340 341 341 340 339 338 338 336 336 336 335 335 335 335 334 334 336 334 334 334 333 333 333 333 332 331 330 331 330 331 331 330 329 330 329 328 329 330 328 328 328 328 328 330 330 331 331
326 326 323 322 313 316 307 304 300 297 294 296 299 306 306 305 306 309 311 312 313 306 306 306 306 305 306 301 305 305 306 308 309 310 309 311 311 315 316 321 326 325 329 332 332 337 340 340 340 340 340 341 340 340 339 338 338 336 336 335 335 335 335 335 335 335 334 334 334 334 334 333 332 332 332 331 331 331 330 331 330 330 329 329 328 327 330 329 329 328 328 328 329 328 331 332 332
326 324 324 319 314 306 307 303 301 301 294 299 297 305 307 307 308 309 311 312 313 309 307 307 307 304 305 303 304 306 308 312 311 309 310 313 315 317 320 323 323 324 328 330 332 338 341 339 340 340 340 341 340 339 339 338 337 336 336 335 334 334 335 334 334 334 333 334 334 333 334 333 333 332 331 331 331 331 331 331 330 330 329 328 328 327 329 330 328 327 328 328 329 329 331 332 330
323 325 323 319 309 316 307 300 298 298 301 305 301 304 307 309 308 309 311 311 310 309 310 308 307 306 303 305 306 309 313 308 309 309 310 312 315 319 322 325 323 323 326 329 331 338 341 339 340 340 340 341 340 340 339 338 336 336 336 335 334 334 334 334 333 333 333 333 334 333 333 333 333 331 331 330 331 331 331 330 330 329 328 328 328 328 329 329 328 327 328 328 329 330 331 331 329
318 320 319 317 312 310 300 299 298 299 302 307 305 306 307 308 309 309 309 309 308 307 303 306 306 305 304 309 308 308 313 311 312 313 313 315 319 320 324 325 325 323 327 328 330 336 341 338 340 340 340 341 340 339 339 337 336 336 336 335 334 334 335 334 334 333 333 332 332 333 332 333 332 331 331 330 331 331 331 330 330 329 328 328 328 327 328 329 328 327 327 328 329 330 331 329 330
326 316 315 308 305 304 299 300 299 302 303 307 308 306 308 308 308 308 308 306 306 307 303 303 302 305 308 310 307 314 309 308 313 312 309 309 320 322 324 325 325 325 327 329 330 335 336 337 339 340 340 340 340 339 338 337 337 336 336 335 334 334 334 333 333 333 333 332 332 333 333 333 332 331 330 330 331 331 331 330 330 330 329 328 327 328 326 328 328 327 327 328 329 331 329 328 329
320 317 316 310 302 303 299 298 300 305 305 306 306 308 310 309 309 307 306 308 308 308 307 305 302 303 308 308 308 315 317 315 311 311 310 311 312 321 321 324 324 325 328 329 331 335 339 337 338 339 340 340 339 340 338 337 336 336 335 335 334 333 333 333 333 333 333 332 333 332 333 333 332 331 331 330 330 330 331 330 330 329 329 328 327 327 327 327 327 326 327 327 329 330 329 329 330
313 315 307 305 305 297 298 299 299 302 304 307 307 307 308 309 308 308 307 307 308 309 309 306 305 304 310 308 311 315 316 306 306 309 311 313 314 322 320 323 325 326 328 329 331 333 338 334 337 338 339 340 340 340 339 338 336 335 336 335 334 333 333 333 333 334 333 332 332 332 332 332 331 331 329 329 329 330 330 330 329 329 328 328 327 326 327 327 327 327 327 326 328 329 329 329 329
306 312 314 303 298 296 295 297 300 302 304 307 307 309 310 310 309 308 308 308 311 308 309 305 303 304 307 309 311 319 313 309 308 311 309 312 319 319 320 323 325 326 328 331 331 333 337 337 334 336 337 338 339 339 340 339 337 335 335 335 334 334 333 333 333 332 332 332 332 332 331 331 331 330 329 329 330 329 329 329 329 328 328 327 326 325 325 326 327 327 326 327 329 329 329 329 329
303 305 307 298 296 296 297 297 299 302 304 306 304 308 310 309 309 306 307 306 309 309 309 308 307 309 305 307 310 316 315 316 312 307 310 314 318 321 324 324 324 325 331 331 332 332 336 338 337 334 336 336 337 338 338 339 338 337 336 335 334 334 333 333 333 332 332 332 332 332 331 331 331 330 329 329 330 329 328 328 328 328 327 326 325 323 323 325 326 327 326 328 328 328 329 329 328
302 307 302 299 297 299 300 298 299 301 302 303 305 308 311 308 307 307 308 308 309 308 309 312 312 308 305 307 313 316 316 317 308 308 313 316 319 320 324 323 324 326 329 330 331 332 335 337 337 338 337 335 335 335 336 337 338 337 337 336 335 334 333 333 333 332 332 331 331 331 331 331 330 330 329 330 329 328 328 327 327 327 325 325 323 321 322 323 325 326 326 327 327 327 329 328 327
303 305 303 296 301 299 297 297 300 297 299 304 308 309 310 308 308 309 309 306 308 307 312 315 313 310 307 310 311 313 316 309 310 312 313 315 319 320 323 324 326 325 328 329 330 332 333 336 337 338 338 338 338 336 334 334 337 336 336 336 335 335 334 334 333 333 332 332 332 331 331 331 331 330 330 330 329 328 326 326 326 326 324 323 321 321 321 322 323 325 326 326 326 327 329 327 326
304 308 302 299 297 297 299 295 297 297 297 304 306 307 308 310 310 309 307 305 307 313 314 313 313 308 305 307 308 313 312 306 310 314 315 316 319 320 323 324 324 326 326 326 328 331 331 334 335 337 338 338 338 338 338 338 334 335 334 334 334 334 334 333 333 332 332 331 331 330 330 330 331 331 331 330 329 327 326 325 324 324 323 321 320 320 322 322 322 323 325 326 326 326 328 326 324
308 305 301 296 293 294 296 297 298 297 297 304 306 308 307 308 310 307 307 308 308 310 309 308 312 308 307 308 311 312 310 309 310 313 316 316 319 320 320 321 321 323 325 326 327 330 331 332 333 334 336 337 337 338 338 338 335 333 333 333 332 332 332 332 331 330 329 328 328 328 328 330 330 329 330 329 329 327 326 325 324 324 322 320 320 321 322 322 322 322 324 326 326 326 327 325 322
309 306 296 295 292 294 296 296 298 294 300 304 307 306 303 304 307 306 306 305 304 307 308 310 308 307 307 309 310 311 311 308 315 315 317 317 317 318 319 319 320 322 322 325 326 328 331 331 332 333 334 336 337 337 338 338 336 332 332 331 330 330 331 330 329 328 327 326 326 325 327 329 328 328 328 327 329 328 324 323 325 323 321 320 320 321 321 321 320 320 322 325 326 328 325 323 322
305 297 295 293 295 294 298 297 299 302 300 302 304 306 304 302 307 308 307 306 306 306 306 309 308 307 309 311 313 313 314 310 309 309 313 315 317 313 315 317 318 319 322 323 325 327 328 329 331 332 334 335 336 336 337 336 337 335 337 337 336 334 331 329 332 332 328 332 325 328 329 327 327 328 328 326 327 326 325 322 323 323 321 320 319 319 319 319 319 319 321 324 326 326 322 325 323
299 297 296 292 296 298 302 301 302 301 300 303 304 305 304 303 305 306 302 303 305 305 306 308 308 310 312 313 313 314 314 314 312 312 314 315 314 312 312 316 317 318 320 321 323 325 327 328 329 330 332 334 335 336 336 336 335 335 336 334 335 332 332 333 333 332 332 331 331 330 328 329 328 328 328 327 327 323 324 322 321 321 321 320 319 319 319 318 319 320 322 325 325 322 324 325 325
301 297 293 295 299 300 301 302 301 303 303 302 302 304 304 305 304 307 301 302 304 302 303 306 306 307 310 312 314 316 317 318 318 316 316 315 314 313 314 316 316 318 320 320 322 325 325 326 328 329 330 332 333 333 334 333 334 335 335 335 334 334 333 333 332 332 331 332 331 330 329 329 329 327 325 322 324 327 325 320 320 320 320 320 319 319 319 320 318 317 316 320 320 323 325 324 323
301 297 293 296 300 297 300 302 302 303 303 302 302 303 302 304 305 305 303 301 301 303 306 305 305 307 309 311 313 315 314 315 315 313 313 314 314 315 314 315 315 316 320 321 321 323 323 325 327 328 330 331 331 331 332 332 333 334 334 334 334 333 333 333 332 332 332 331 331 330 330 329 329 327 327 326 324 324 324 324 323 323 323 319 319 317 319 320 316 314 314 315 321 323 323 324 324
300 297 299 299 300 297 300 301 302 302 303 302 302 299 300 305 304 303 302 298 299 303 306 308 308 309 309 310 311 312 312 312 311 310 311 311 312 313 316 317 317 317 318 315 317 319 321 324 326 328 329 330 331 331 331 331 331 331 332 333 333 333 333 332 331 332 331 331 331 331 329 328 327 326 325 324 324 324 324 323 323 323 322 318 318 315 315 315 314 313 313 315 318 321 323 324 323
293 298 299 300 300 298 301 301 301 301 300 300 299 301 303 301 301 303 302 301 303 307 308 308 308 309 310 310 310 309 309 309 309 309 309 310 310 312 312 314 316 315 316 315 317 319 321 322 325 327 327 329 330 331 332 331 330 330 331 331 331 331 332 331 330 331 331 331 330 331 329 327 326 325 324 323 323 323 322 323 323 322 320 315 313 312 314 315 313 312 312 315 320 321 323 323 322
297 294 299 298 300 298 301 300 301 301 300 298 301 302 299 299 295 301 299 302 304 305 306 306 307 307 308 307 308 308 308 308 308 309 310 309 310 310 313 313 314 316 315 316 317 318 320 320 323 326 326 328 329 330 331 330 330 330 330 329 330 330 330 330 330 330 331 330 330 330 328 328 326 324 324 323 322 323 322 323 323 321 319 315 313 313 314 313 312 312 314 318 320 321 322 322 321
295 295 298 298 299 299 300 300 299 299 299 300 300 297 297 298 298 299 297 301 302 303 305 305 305 305 305 305 306 306 307 307 307 309 310 310 311 313 313 315 314 315 313 314 315 317 320 320 322 324 325 326 328 329 329 329 328 329 329 328 328 327 329 329 330 331 330 329 329 329 329 327 327 326 324 323 323 322 322 323 322 321 319 315 313 312 314 314 313 312 314 317 319 321 321 321 320
296 296 297 297 297 298 298 298 298 298 298 299 296 295 297 298 300 297 299 301 303 304 303 303 303 303 304 304 305 306 306 306 307 307 308 310 311 310 312 313 313 312 313 314 315 317 318 319 319 320 323 325 326 327 327 328 328 327 328 327 328 328 328 329 331 329 328 329 329 328 328 328 327 325 325 323 322 322 322 322 322 321 319 316 312 311 313 313 312 313 314 317 319 321 321 321 319
295 295 295 295 296 297 298 296 297 298 297 297 294 295 296 300 298 293 299 301 303 303 302 303 303 303 303 304 305 305 305 306 306 307 308 309 309 309 310 313 313 312 313 313 314 316 318 318 317 318 321 324 325 325 326 326 327 327 327 327 328 327 328 329 329 328 328 328 328 328 328 328 327 327 325 324 323 323 322 322 321 320 319 316 312 311 314 314 313 313 315 316 319 320 320 320 319
296 296 296 295 296 297 297 296 296 297 295 297 296 295 298 299 297 294 299 302 302 300 301 301 302 302 302 303 304 305 305 306 307 307 306 306 307 308 309 310 312 312 312 313 314 316 317 317 317 318 320 322 323 324 325 324 325 327 328 327 327 327 328 328 327 327 327 327 328 328 327 327 327 326 326 325 324 322 321 321 320 319 318 316 313 312 314 314 313 314 316 318 320 321 320 320 319
296 295 291 294 296 295 298 296 298 298 295 299 297 293 292 293 292 297 299 300 301 300 300 300 301 301 302 303 303 303 304 305 306 305 306 307 308 308 308 311 311 312 313 314 315 316 316 317 316 317 319 321 321 321 322 323 325 327 327 327 327 328 328 327 327 326 326 326 326 327 327 327 327 326 325 325 323 322 321 320 320 319 318 317 313 313 315 315 313 314 315 317 318 319 318 318 318
297 296 293 292 293 293 298 299 296 293 296 294 294 285 290 294 296 298 300 300 300 299 299 300 300 301 302 302 302 303 304 305 305 306 306 307 308 308 309 310 312 311 311 313 314 316 317 320 320 319 318 318 319 320 321 322 324 325 326 327 327 328 327 326 326 326 326 325 325 326 325 325 325 326 325 325 323 322 321 320 319 318 318 317 314 313 313 313 312 312 314 314 315 316 316 317 316
292 295 294 289 289 290 294 294 293 291 295 294 294 285 288 293 296 299 300 300 299 297 298 299 300 300 301 302 302 302 303 304 305 306 307 308 308 309 309 310 310 310 310 311 313 315 315 316 318 317 316 316 318 318 320 321 323 324 325 325 326 327 326 326 326 326 326 325 324 323 324 324 325 325 325 324 322 322 320 319 319 318 318 317 314 312 312 312 312 313 313 313 315 315 316 317 316
294 290 288 292 289 291 295 296 295 291 293 294 292 286 289 293 296 298 299 299 298 297 297 298 299 299 300 300 301 301 302 304 304 305 306 306 307 308 309 308 309 308 308 310 312 315 314 314 316 314 314 314 316 317 320 321 322 324 324 322 325 327 325 325 325 325 326 325 323 322 323 323 324 324 324 324 322 321 320 319 318 318 318 316 314 312 312 312 312 313 313 314 314 314 315 315 315
292 289 287 287 290 291 291 293 293 294 292 293 291 287 290 291 296 298 299 298 297 296 296 297 298 298 299 299 300 300 301 302 303 303 305 305 306 307 308 308 308 308 308 309 310 312 313 313 312 313 313 313 315 316 318 320 321 322 323 323 324 325 324 324 324 325 325 324 322 321 321 321 322 323 323 322 322 321 320 319 318 318 317 315 314 312 311 312 312 313 313 313 314 313 314 315 314
289 291 286 289 287 289 287 293 292 292 290 289 292 288 290 292 295 297 298 298 297 296 296 297 298 299 299 300 300 300 300 301 301 303 304 305 305 306 306 307 308 308 309 309 310 310 310 311 312 312 313 313 313 314 316 318 319 320 321 322 322 323 324 324 324 325 324 323 321 320 320 320 320 322 322 321 321 321 320 319 319 317 316 315 313 312 311 312 313 312 312 313 313 313 312 313 314
285 286 286 287 289 288 287 287 290 290 291 288 290 290 290 292 295 296 297 298 297 297 297 298 298 299 299 300 300 301 301 301 302 304 305 305 306 306 306 307 307 308 308 308 309 309 309 310 311 311 311 312 312 313 316 317 318 319 320 320 321 321 322 323 323 323 323 322 321 320 320 319 319 320 320 320 320 320 319 319 318 317 316 315 313 312 311 313 313 312 312 312 314 313 312 314 314
288 287 286 286 284 286 287 291 293 290 289 288 289 288 291 293 295 297 298 299 298 297 298 298 298 299 299 299 300 300 301 301 304 305 306 306 306 306 305 305 305 307 306 306 306 307 308 308 308 309 309 310 310 312 314 314 315 315 315 317 317 318 320 320 321 321 321 320 320 319 319 318 318 319 319 319 319 319 318 318 318 317 315 315 313 311 310 311 312 312 312 313 312 312 313 314 315
289 288 287 286 286 287 290 291 292 292 288 288 290 291 291 293 294 296 298 299 298 298 297 298 298 299 299 300 300 301 301 301 305 306 306 306 306 305 305 306 305 304 305 305 305 305 305 305 306 306 308 309 308 309 310 311 312 313 314 314 314 316 317 318 319 319 319 319 319 319 318 318 318 318 318 319 318 317 318 318 317 316 315 314 313 311 311 312 313 313 312 313 312 311 311 313 314
288 287 286 286 287 285 290 290 293 291 288 289 292 291 291 293 295 297 298 298 297 297 297 298 298 299 300 300 300 301 302 304 304 303 304 305 305 308 307 306 305 303 303 302 302 303 304 305 304 305 307 307 307 308 309 311 313 313 313 313 314 315 315 315 316 317 317 318 318 318 318 318 318 318 317 318 317 317 317 316 316 315 314 314 314 313 312 312 313 312 313 311 312 311 310 312 313
289 287 287 286 287 289 291 291 291 289 288 288 291 290 291 293 296 298 299 299 300 300 300 300 300 300 301 301 301 302 302 302 303 303 304 303 305 306 305 305 305 304 305 304 303 303 304 304 304 305 306 307 307 308 309 310 312 314 314 314 314 314 316 316 317 317 317 317 318 317 318 318 318 318 318 317 317 317 317 316 315 315 314 314 313 311 311 311 312 312 313 309 309 312 312 313 312
287 287 285 285 289 286 286 290 288 290 288 288 290 288 291 295 298 299 300 300 300 301 300 300 300 300 300 301 301 302 302 302 302 302 302 303 303 303 304 303 303 305 305 304 304 304 303 303 303 304 305 307 308 309 309 311 313 314 314 314 315 315 313 314 316 316 316 316 316 317 317 317 318 317 318 317 316 317 317 316 316 315 314 314 313 311 310 310 311 312 312 310 311 308 310 309 312
289 288 288 287 288 289 288 289 291 291 293 290 290 290 293 297 296 298 301 301 299 300 300 299 299 300 300 301 300 300 299 300 300 301 302 302 301 301 302 303 306 305 306 306 306 304 303 303 303 304 305 306 308 309 309 311 311 311 310 312 313 311 311 312 312 311 313 313 314 314 314 316 316 316 316 316 315 316 316 316 315 315 314 313 314 312 310 310 312 312 312 311 311 309 308 310 309
290 290 289 290 290 289 290 290 288 288 290 289 290 285 288 296 297 298 299 299 298 300 298 298 299 300 299 298 299 300 301 301 300 300 301 303 302 302 303 303 305 307 306 307 307 306 304 303 303 304 306 307 307 309 309 309 308 308 307 307 306 307 307 308 308 308 310 311 311 314 314 315 316 316 316 316 315 315 315 315 315 314 314 312 313 312 311 310 311 312 312 312 311 310 310 310 308
287 290 292 291 291 290 289 288 288 286 284 290 292 284 283 293 294 297 297 297 298 298 297 298 298 298 298 299 299 299 300 301 302 301 301 300 301 301 302 303 306 307 308 308 305 304 303 304 304 304 305 306 308 308 309 308 308 308 308 308 309 309 308 309 311 312 312 312 313 313 314 315 315 315 315 316 315 314 315 315 315 314 313 313 312 312 310 310 311 312 313 312 312 311 311 308 309
288 292 290 290 289 288 289 289 288 286 290 289 289 289 284 285 292 296 298 297 296 296 297 298 299 298 299 299 299 300 301 301 301 301 301 300 301 302 302 304 307 308 309 306 306 305 303 303 304 305 306 306 308 308 308 308 308 308 308 309 310 310 310 311 311 312 313 313 313 313 313 313 314 314 314 315 314 314 314 314 314 314 312 312 311 311 310 310 311 313 313 313 313 312 311 308 309
290 290 291 291 291 291 290 289 288 289 285 284 286 286 283 284 291 298 297 295 294 295 296 297 299 300 301 300 299 300 300 300 299 301 302 302 303 303 303 306 307 305 307 307 306 306 306 305 305 306 306 307 307 307 307 308 308 309 309 309 309 310 311 311 311 311 311 311 312 312 312 312 312 313 314 314 314 314 313 314 313 312 311 311 310 311 311 310 310 311 311 312 312 311 310 310 310
292 291 292 291 291 291 290 289 288 288 284 282 286 285 283 285 292 295 296 293 293 295 297 298 300 300 301 300 300 301 301 301 302 301 301 303 303 303 303 304 304 306 306 305 304 305 306 305 305 305 306 306 307 307 307 308 309 309 308 309 308 309 309 309 309 308 309 310 310 310 311 311 311 311 312 312 313 313 313 313 312 312 311 311 309 311 311 310 310 311 311 312 312 311 311 310 309
289 292 291 291 291 289 288 288 287 285 281 285 284 284 284 282 290 292 293 294 295 296 297 298 299 300 301 303 301 300 299 300 301 300 302 303 302 301 302 304 305 305 305 305 305 305 306 305 305 305 306 306 306 307 307 307 308 308 308 309 309 309 308 308 307 307 308 308 309 309 310 310 311 311 311 311 312 312 312 312 311 311 311 311 309 310 310 309 309 310 311 312 312 311 311 311 310
291 290 289 289 290 287 286 285 286 281 282 285 284 284 285 280 288 295 295 294 294 295 295 296 297 298 299 300 301 300 299 299 299 300 301 303 303 303 304 305 305 306 305 305 305 304 306 307 306 306 305 306 306 307 307 307 307 308 308 309 309 309 309 308 307 307 307 307 308 308 309 309 309 310 310 310 311 312 311 311 311 311 310 310 309 310 310 310 309 310 310 310 311 312 312 311 311
290 289 288 284 284 284 282 282 279 281 282 283 284 284 282 282 288 293 294 295 297 298 297 297 297 297 298 299 300 300 299 299 299 300 300 302 306 305 304 304 304 305 307 306 305 304 304 306 307 306 305 306 306 307 307 307 307 307 307 308 308 309 308 308 308 309 309 308 308 308 308 308 308 308 309 309 310 310 310 310 309 309 309 309 309 309 310 309 309 309 309 310 310 311 311 311 309
289 287 286 283 280 279 276 281 279 280 284 283 284 285 281 289 292 296 295 296 296 295 296 297 297 297 297 298 298 297 299 299 299 298 299 301 301 305 305 306 305 306 305 305 304 302 302 303 305 306 306 306 306 307 307 307 307 307 307 308 308 308 308 308 308 309 309 309 309 309 308 308 308 308 308 309 310 310 310 310 310 310 310 309 309 309 309 309 309 308 309 309 310 311 311 311 310
289 292 289 286 285 281 277 280 279 280 281 283 283 282 283 284 291 296 296 296 296 295 295 295 295 296 297 296 296 297 298 298 298 298 299 299 300 300 303 304 304 304 304 304 303 303 302 303 304 305 306 305 305 306 306 306 306 307 307 307 307 307 307 307 308 309 309 308 309 309 309 309 309 309 309 309 310 309 310 310 310 309 309 309 308 309 309 309 308 308 308 309 310 310 310 311 310
290 290 291 286 284 289 282 282 281 280 280 280 280 283 289 290 296 296 298 297 295 292 290 291 293 294 294 296 298 297 297 298 298 298 298 298 298 298 300 301 301 302 302 302 302 303 303 303 303 304 305 304 304 305 305 306 306 306 306 306 306 306 307 307 307 308 308 309 309 309 309 309 309 309 310 309 309 309 309 309 309 309 309 309 308 308 308 308 308 307 307 308 308 310 310 310 310
287 287 284 287 289 289 284 280 277 276 277 278 286 284 288 293 294 296 295 294 295 293 292 291 292 293 295 296 297 296 297 298 297 297 297 297 297 297 298 298 300 300 300 301 302 303 303 303 302 302 302 302 303 304 305 305 306 306 305 305 306 306 306 306 307 307 307 308 309 309 309 309 309 309 309 309 309 309 309 309 308 308 308 309 308 308 308 307 307 307 307 307 308 309 309 309 309
288 284 288 288 290 289 285 280 280 280 277 280 280 281 284 284 284 297 295 294 295 295 294 293 294 293 294 296 296 295 296 297 297 298 299 298 297 297 298 298 297 298 299 300 301 301 302 303 303 303 303 302 302 303 304 305 305 305 305 305 306 306 306 306 307 307 307 307 307 308 308 308 308 309 309 309 308 308 308 306 308 308 308 308 307 307 307 307 307 306 307 307 308 309 308 309 309
289 287 288 286 281 281 283 282 275 276 276 278 281 281 281 284 286 291 292 292 293 294 295 295 294 293 293 294 295 296 297 298 299 299 300 300 300 299 298 298 298 298 298 299 299 299 299 299 301 302 304 303 303 303 304 304 305 305 306 306 306 306 306 307 307 307 307 307 307 307 307 308 308 308 307 307 307 307 307 307 307 307 307 307 307 307 307 306 306 306 306 307 307 308 307 307 309
288 289 287 285 285 285 281 283 282 281 277 277 280 279 282 287 289 291 291 293 294 293 294 294 295 294 294 293 294 296 297 298 298 298 299 299 300 299 298 298 298 299 299 299 299 299 299 300 300 300 301 301 301 301 302 302 304 305 305 306 306 307 306 307 307 307 306 306 307 307 307 307 308 307 307 307 307 306 306 306 306 307 307 306 306 306 306 306 306 306 306 306 306 307 306 307 308
285 286 285 285 285 285 285 283 282 281 278 278 276 277 284 290 292 291 292 293 294 293 294 295 296 296 295 294 294 295 296 299 298 297 297 299 299 299 299 298 299 298 298 298 299 300 300 300 300 300 301 301 301 302 302 302 303 303 304 304 305 305 305 306 306 306 306 306 307 307 307 308 308 307 307 306 306 306 306 306 306 306 306 306 306 305 305 305 305 305 306 306 306 306 305 306 307
289 287 285 287 284 282 279 278 280 278 280 277 276 277 284 291 292 293 294 293 293 293 294 295 296 296 295 295 296 296 297 299 300 300 297 297 298 299 299 299 298 298 300 299 299 298 299 299 300 301 301 302 302 302 302 302 303 303 303 304 304 305 305 305 305 305 305 306 306 306 307 307 306 307 307 306 306 306 306 306 306 306 306 306 306 305 305 305 304 304 305 305 306 304 304 305 306
Wind_Speed
4 1 1 2 3 2 7 8 6 6 5 14 14 14 12 10 13 5 7 7 6 4 6 4 5 5 5 5 6 5 5 6 4 4 1 3 2 1 1 7 4 2 7 10 11 12 16 17 19 19 19 18 18 17 17 16 16 16 15 15 15 15 14 14 14 13 14 13 12 12 12 11 11 11 11 10 10 10 9 8 8 8 7 6 5 5 6 5 2 1 3 3 3 4 4 5 6
2 1 2 3 3 2 3 2 1 9 9 14 17 16 16 8 10 13 13 11 6 2 1 2 2 5 4 3 4 5 12 13 12 8 7 1 5 2 1 6 7 3 8 8 11 12 14 16 19 19 18 18 18 17 17 16 16 15 15 15 15 15 15 14 14 14 14 13 13 12 12 12 11 11 10 10 9 8 8 8 7 6 6 5 5 6 6 4 3 2 5 2 2 4 5 5 5
3 1 2 3 5 3 3 1 5 9 13 16 15 16 13 13 12 12 13 11 7 6 2 3 1 3 6 3 6 7 2 3 5 8 6 5 8 3 2 3 6 4 8 7 10 12 11 14 18 19 18 18 17 18 17 16 16 15 15 15 15 15 15 15 14 14 13 13 13 12 12 12 11 11 10 9 9 8 7 7 7 7 6 5 5 6 5 4 3 3 2 2 2 4 5 5 6
3 1 2 4 2 3 3 2 8 11 13 16 14 15 16 14 15 13 12 10 7 5 4 5 6 3 6 9 5 1 10 7 5 4 4 3 3 4 2 4 5 4 7 6 10 10 10 14 17 19 19 18 18 17 17 17 16 16 15 15 15 15 15 15 14 14 14 13 12 12 12 12 11 10 9 9 9 8 8 7 7 6 5 5 5 5 5 4 4 1 3 2 3 4 6 5 5
1 2 3 4 5 6 6 9 10 10 18 14 15 12 12 13 12 12 11 8 6 5 4 3 6 4 3 5 0 4 2 1 4 3 3 3 2 3 2 5 5 4 7 8 9 10 10 16 17 18 19 19 18 18 17 17 17 16 17 16 15 15 15 15 14 14 13 13 13 12 12 12 11 10 9 9 8 8 8 8 8 7 6 6 5 6 5 5 3 2 3 2 3 4 5 5 4
1 2 1 5 4 3 3 9 13 18 20 7 12 11 7 7 8 11 12 5 4 6 6 7 8 2 5 5 4 7 2 6 4 4 4 2 3 2 3 5 6 5 7 9 9 9 9 15 18 18 19 19 18 18 18 18 17 17 17 16 16 15 16 16 15 14 14 14 14 13 12 12 11 10 9 9 9 9 9 8 8 7 7 6 6 5 6 5 4 3 3 3 4 4 4 4 4
3 4 4 4 2 4 10 15 17 15 17 14 13 11 5 6 6 7 8 8 4 4 0 5 3 4 8 3 4 9 8 4 5 2 3 2 1 1 4 5 5 6 9 9 8 8 9 14 17 18 19 19 19 18 18 18 17 18 17 16 16 16 16 16 15 14 14 14 14 13 12 12 11 10 10 9 9 9 9 8 8 7 7 6 6 6 5 5 4 3 4 3 4 4 4 4 5
2 6 4 7 8 7 14 16 18 16 14 14 15 14 8 3 1 4 8 7 5 7 5 3 3 3 10 4 8 2 1 4 9 2 0 1 2 3 5 5 6 6 8 9 9 7 8 13 15 16 18 19 18 18 18 18 17 18 17 16 16 16 17 16 15 15 14 14 14 14 13 12 11 10 9 9 10 10 9 9 8 8 7 7 6 6 6 5 6 4 4 5 5 4 4 4 5
4 4 1 5 10 8 11 16 18 15 17 8 10 7 11 10 5 6 10 7 6 5 5 6 6 7 5 2 7 9 8 3 4 6 7 7 6 5 4 7 7 6 8 9 9 8 10 13 13 15 15 17 18 18 18 18 17 17 17 17 16 16 16 16 15 15 15 15 14 14 13 12 12 11 10 10 10 10 10 9 9 8 7 7 7 6 6 6 5 5 6 4 4 5 3 4 3
3 4 6 6 7 15 13 16 15 15 17 18 13 11 10 13 13 12 13 14 11 8 6 2 4 11 11 15 11 11 5 4 2 6 3 3 4 5 6 8 7 8 9 9 8 9 9 12 13 14 14 14 16 17 16 17 17 17 18 18 17 17 16 16 16 16 15 15 14 14 13 13 12 11 11 11 11 10 10 9 8 8 7 7 7 7 6 6 6 5 5 5 5 4 4 5 4
5 3 3 8 12 14 15 15 15 14 16 12 14 13 14 13 13 13 13 15 13 11 4 5 5 9 10 14 12 7 2 1 3 5 4 4 2 5 5 5 6 7 9 10 9 8 9 11 13 13 13 13 13 16 14 15 17 17 17 17 17 17 16 16 16 16 15 15 14 14 14 13 12 11 11 10 9 10 9 9 9 8 8 7 7 6 6 6 6 6 5 5 6 5 5 5 7
6 5 4 10 13 14 13 13 14 13 13 11 11 9 8 13 13 14 16 18 16 17 18 9 5 4 10 10 9 8 0 6 2 2 4 2 2 3 3 3 4 6 6 9 9 8 9 10 12 12 13 13 12 14 14 13 15 16 16 17 17 17 16 16 16 16 16 15 15 14 14 13 13 12 11 11 8 8 9 8 8 8 8 8 7 6 6 6 6 5 6 6 6 5 5 6 4
7 4 9 10 12 13 14 16 14 14 13 14 12 9 6 10 12 13 14 16 17 17 16 11 8 4 13 11 5 11 14 4 2 2 2 1 1 1 2 2 4 5 5 7 9 9 9 9 11 12 13 12 12 11 13 12 14 15 15 15 16 16 17 17 16 16 15 15 15 14 14 14 13 12 12 10 8 7 6 7 8 9 8 7 7 6 6 6 6 6 7 7 6 5 5 4 1
8 5 7 12 9 12 14 14 13 13 12 12 10 10 9 10 11 12 13 17 18 17 12 11 10 7 15 11 11 12 13 4 4 4 2 1 1 0 1 2 3 4 5 7 9 9 10 9 9 10 13 13 13 11 11 11 12 14 14 14 14 14 14 14 15 14 14 14 12 12 12 11 11 12 11 9 8 8 8 8 9 9 8 8 7 7 6 6 6 6 7 7 5 5 6 3 1
8 1 6 11 12 12 12 13 13 13 13 7 7 7 9 10 12 11 12 15 17 11 5 2 5 5 8 8 6 8 2 6 4 3 2 2 1 1 1 1 3 4 5 7 8 9 10 10 10 9 11 12 13 12 12 12 12 13 14 14 14 14 14 13 13 13 12 12 11 11 10 9 9 9 9 8 9 10 10 10 11 9 9 8 8 7 7 7 6 6 6 6 5 5 3 3 2
4 3 7 10 15 14 11 12 12 12 12 5 6 5 10 12 8 10 8 8 10 2 2 7 9 8 4 7 9 9 6 3 2 1 1 1 1 0 2 3 4 4 4 6 8 8 8 10 10 9 10 12 12 11 11 13 13 12 13 14 14 14 13 13 13 12 12 11 10 10 9 8 9 9 8 9 9 10 11 10 11 9 9 8 7 7 7 6 6 6 6 6 6 4 3 3 3
1 5 10 11 15 13 11 11 10 11 9 8 8 8 10 10 3 4 1 3 9 12 7 11 9 2 10 9 9 12 8 5 2 1 1 2 1 2 2 3 4 4 4 6 7 7 8 9 11 9 11 12 12 11 10 11 12 12 11 12 14 14 13 12 12 11 10 10 10 9 9 10 10 10 10 11 11 10 10 9 8 9 8 7 7 7 6 6 5 6 6 6 7 4 4 4 2
4 8 10 15 14 16 13 16 11 8 9 8 8 7 7 11 10 6 5 11 11 12 15 12 9 9 10 11 11 13 16 3 2 6 7 5 4 5 4 4 5 6 6 6 7 7 8 9 11 11 9 13 12 10 8 9 10 11 16 13 12 12 12 12 11 12 12 11 11 10 10 10 9 9 9 11 10 11 10 10 8 7 8 7 7 7 6 6 6 6 6 7 5 5 5 4 4
8 8 11 16 13 13 10 11 12 13 14 13 13 13 14 16 13 8 9 17 16 16 17 15 16 14 12 12 14 17 18 15 7 7 8 9 8 10 9 6 6 5 5 6 6 10 9 8 9 11 10 11 12 11 8 8 11 12 14 14 12 14 14 13 14 13 12 12 11 11 10 9 10 8 8 8 8 8 8 11 9 8 8 7 7 7 6 6 5 4 3 1 4 4 4 4 3
10 10 13 14 12 11 5 8 12 12 13 16 16 16 15 13 9 7 12 18 18 20 16 15 17 16 15 14 14 12 12 12 9 8 9 10 10 10 9 8 6 7 7 6 6 7 8 8 10 10 11 11 11 10 9 9 9 10 11 11 11 12 14 13 15 13 12 13 11 10 10 9 9 8 8 5 4 6 7 9 9 8 7 7 6 6 6 4 3 3 1 1 3 4 4 4 3
3 8 11 12 8 9 11 12 14 13 13 14 16 14 15 14 14 13 15 17 21 19 17 18 20 19 18 17 17 15 15 14 9 8 10 11 11 9 10 9 8 7 4 4 4 6 10 10 9 10 10 10 12 9 10 10 10 9 10 10 11 11 11 12 12 13 12 13 12 10 10 9 9 8 8 8 10 9 8 9 8 8 7 7 8 6 5 5 5 5 4 5 5 4 4 4 3
2 10 13 14 7 12 14 13 13 14 14 14 12 14 16 14 16 17 18 20 20 12 12 12 13 15 17 18 19 17 17 17 13 11 13 14 15 15 11 9 8 6 1 4 7 7 10 11 11 9 10 11 12 10 10 9 10 10 10 11 11 10 11 12 12 11 12 13 12 11 10 9 10 9 8 9 9 9 8 7 7 7 7 6 6 6 5 5 4 5 4 5 5 4 4 3 3
10 11 13 13 14 15 12 13 10 11 14 14 14 15 15 16 17 17 19 25 19 16 16 19 20 20 20 20 19 20 19 19 17 16 15 17 18 17 16 14 9 7 7 9 8 7 8 10 11 11 11 11 13 12 9 9 10 10 10 11 11 11 11 12 12 11 11 12 14 12 10 10 10 9 9 10 10 9 9 8 7 7 6 6 6 6 6 5 5 4 4 5 4 4 4 3 3
10 12 11 13 13 17 15 16 14 13 15 16 15 14 13 16 21 15 21 23 19 19 18 20 20 20 20 21 21 22 21 21 20 19 19 19 19 20 17 15 13 9 9 10 11 10 8 11 12 13 12 12 12 12 11 10 10 10 10 10 11 12 11 11 11 11 11 11 13 12 12 10 10 10 9 10 10 9 9 8 7 7 6 6 6 6 5 5 5 4 4 4 4 4 4 4 3
10 12 12 14 13 15 15 15 14 14 15 15 16 17 17 17 19 16 28 20 19 17 16 17 19 20 21 22 22 23 23 22 21 21 18 15 16 18 17 13 13 11 11 13 13 11 10 10 11 13 12 13 11 11 11 9 9 10 10 10 12 12 11 11 11 10 11 11 13 15 12 11 10 10 10 9 9 10 9 9 7 7 6 6 6 6 5 5 5 5 5 5 5 5 4 4 4
11 14 13 12 11 12 11 11 13 14 10 9 12 17 17 19 21 25 25 21 19 19 22 22 22 21 21 22 22 22 22 22 20 20 20 16 15 17 19 15 13 14 14 15 14 11 11 10 12 14 14 13 12 10 10 9 10 10 11 11 10 11 13 13 12 10 10 10 11 14 14 12 11 10 10 9 10 10 10 9 8 7 7 6 6 6 6 5 5 5 5 5 5 5 4 4 3
3 9 11 13 16 16 12 14 17 15 12 10 15 20 20 19 13 12 3 7 14 17 18 18 17 19 21 19 19 20 22 22 20 18 18 17 16 16 18 15 14 14 13 16 14 12 10 10 12 14 14 12 10 11 10 10 10 11 11 10 10 11 12 11 11 11 10 11 10 12 14 14 11 10 10 10 9 9 9 8 8 7 7 7 6 6 5 6 5 5 5 5 5 5 5 4 4
9 10 13 15 17 16 14 14 18 11 11 17 18 21 21 18 10 14 18 19 19 18 18 19 19 20 20 22 21 20 20 19 16 16 21 21 16 14 17 14 13 13 14 15 13 13 10 12 15 13 12 11 12 12 10 10 11 11 11 10 11 11 11 10 10 11 11 11 12 11 12 13 12 11 11 10 10 9 9 9 8 8 8 7 6 6 6 5 5 5 5 5 5 4 4 4 4
7 7 13 16 17 17 16 17 18 11 14 10 5 12 16 15 17 18 20 20 20 20 21 21 22 20 19 20 19 17 17 17 17 16 18 18 17 16 18 14 12 12 12 15 15 12 13 13 12 12 11 11 14 14 11 10 10 11 11 11 10 10 11 10 10 10 10 11 12 12 11 13 12 11 11 11 10 9 9 8 8 8 8 7 6 7 6 5 5 5 5 4 5 4 4 4 3
8 10 10 16 14 14 10 9 6 4 8 3 3 11 8 9 13 16 17 15 15 17 17 17 17 17 16 17 16 16 16 16 17 16 16 16 17 18 19 17 13 14 13 12 13 13 11 6 6 6 10 13 14 12 10 10 11 10 10 10 10 10 10 10 10 9 10 10 12 13 12 13 13 11 10 11 10 9 9 9 9 8 8 7 6 6 6 6 6 6 6 6 5 6 5 5 4
8 10 5 11 12 10 4 3 4 8 2 3 6 12 12 14 15 14 14 14 15 18 17 17 17 17 16 13 13 15 16 16 18 18 19 19 18 16 16 16 14 14 12 13 14 14 12 9 6 6 8 12 12 12 12 11 10 10 10 10 10 10 10 10 9 9 10 10 10 12 14 12 13 12 11 10 10 10 9 9 9 8 8 7 6 6 7 6 6 7 6 7 6 6 5 5 5
5 8 8 5 7 12 8 6 8 10 1 4 5 10 12 14 13 12 14 14 15 16 17 18 17 17 17 14 14 15 16 16 18 20 20 21 20 17 15 15 13 14 17 16 14 11 12 11 8 9 10 12 12 12 11 12 11 11 10 10 9 11 10 10 9 10 9 9 10 11 13 14 12 13 13 10 10 10 9 9 9 8 9 7 7 7 7 7 7 6 7 7 6 6 5 5 4
4 6 11 12 10 12 13 2 3 6 7 5 8 12 17 16 10 12 12 13 14 15 18 18 20 22 20 18 16 15 17 17 17 19 21 19 18 16 13 14 14 16 17 17 16 13 12 10 9 11 12 13 11 12 12 12 11 11 11 10 10 10 10 10 9 9 9 9 10 11 12 14 13 12 13 13 9 10 10 9 8 9 8 8 7 7 8 7 7 6 6 7 7 6 6 6 5
6 4 8 10 12 12 13 8 4 1 3 6 7 11 18 20 19 19 19 17 18 17 20 21 20 18 18 16 16 16 16 16 17 17 20 19 15 17 16 15 15 16 16 16 14 11 12 10 10 11 10 10 10 11 12 11 10 10 9 9 9 9 11 9 9 9 9 9 10 11 12 13 12 14 13 13 11 10 10 9 8 9 8 8 7 7 8 8 7 7 7 6 7 6 6 6 6
10 9 9 10 10 10 15 13 1 4 4 11 17 19 23 21 20 19 19 19 19 19 19 21 20 20 18 17 16 16 16 18 18 17 19 17 16 15 14 15 14 15 12 12 10 10 10 10 8 9 10 10 9 9 9 9 9 8 8 9 9 10 9 9 9 9 8 8 10 11 12 12 12 14 14 13 11 9 9 9 8 9 8 8 8 8 8 8 8 8 8 7 5 6 5 5 5
12 9 10 11 12 14 13 15 10 3 14 14 17 16 18 20 21 22 20 18 16 19 20 18 19 19 18 17 17 15 15 19 17 17 18 15 11 11 12 12 12 11 12 9 11 11 12 10 8 7 9 9 8 8 8 8 8 9 9 8 8 10 10 10 10 9 8 8 11 12 12 12 12 13 14 14 12 10 9 9 10 9 9 9 9 9 10 9 10 10 10 8 7 5 3 3 3
7 6 9 12 13 17 18 15 10 1 8 13 17 19 20 23 23 23 23 19 17 19 20 18 17 16 16 16 16 16 17 19 16 13 12 12 13 14 12 9 9 10 9 10 10 11 11 10 8 11 9 9 9 9 9 10 10 9 9 11 12 10 10 10 10 10 10 9 12 12 12 12 12 13 13 14 13 11 10 9 10 9 10 9 9 10 10 10 10 9 8 7 8 7 6 5 4
11 11 10 12 10 15 16 15 13 1 5 10 14 21 23 22 22 22 20 17 18 18 18 18 19 17 15 16 16 16 16 13 13 13 15 14 11 9 6 6 8 11 10 9 10 10 9 10 12 10 8 10 11 11 10 10 10 10 10 10 10 9 10 11 11 10 10 9 12 12 12 12 13 13 13 14 13 12 11 9 10 10 11 10 9 9 10 9 9 9 8 7 7 9 7 7 5
10 9 8 9 11 10 17 13 1 2 4 12 15 21 22 22 22 22 18 16 14 13 12 14 14 14 12 12 13 14 12 14 12 13 13 10 10 8 8 8 8 10 8 9 10 9 10 10 10 9 9 10 10 10 10 10 9 8 8 6 9 7 7 7 7 8 9 10 11 12 13 13 13 13 14 14 13 13 11 10 10 10 11 10 9 10 10 10 10 12 11 9 8 7 6 5 7
7 7 7 10 7 5 10 2 4 3 2 13 15 19 21 23 18 16 13 10 11 9 9 11 10 12 13 13 11 10 12 11 13 12 11 9 8 7 6 6 8 6 7 8 8 10 8 9 9 10 9 10 9 10 10 8 9 8 5 5 6 5 6 6 6 6 7 9 10 11 12 13 14 13 14 14 13 13 11 10 10 10 11 11 10 10 10 11 11 11 11 11 9 8 7 6 6
8 10 10 10 11 10 8 12 11 15 12 5 12 16 16 8 8 12 3 7 6 8 9 9 9 10 11 10 10 11 15 14 14 12 11 9 6 6 7 5 5 7 8 8 8 9 6 10 10 11 9 10 9 10 11 9 8 7 5 5 5 5 4 5 7 7 8 9 9 10 13 13 13 13 13 14 13 12 11 10 10 10 10 11 10 10 10 11 11 11 12 11 11 9 8 6 6
8 11 13 13 13 14 11 10 10 9 5 3 15 13 10 6 13 10 8 6 8 6 6 6 5 5 4 6 8 8 9 10 12 13 12 8 5 5 4 4 5 6 6 6 5 7 7 7 8 9 8 8 9 10 12 10 10 10 10 9 9 8 8 9 11 12 12 13 13 11 13 14 14 13 12 14 14 11 12 12 11 10 10 10 10 10 9 10 11 12 12 11 11 10 8 7 7
9 5 10 13 13 9 8 10 6 8 10 3 6 4 13 18 16 8 6 11 13 7 3 2 1 1 1 1 3 5 6 7 7 9 9 9 8 7 7 6 6 6 5 1 2 4 5 5 7 8 8 7 8 10 12 10 10 10 12 11 10 11 11 9 8 9 9 8 8 10 10 12 12 12 12 12 12 13 12 12 11 10 10 10 10 10 10 11 11 11 10 11 10 10 9 8 8
9 3 1 3 5 6 7 5 5 9 7 8 5 6 7 12 18 4 9 13 5 2 2 3 2 2 3 4 5 5 5 6 6 6 7 7 6 6 6 5 5 4 1 1 2 3 5 5 6 7 6 7 7 9 11 11 11 11 12 11 10 9 8 6 8 7 7 7 8 9 9 9 11 11 11 12 12 13 12 11 10 10 10 10 10 10 10 10 9 9 10 11 9 9 10 8 8
1 2 2 2 4 6 5 5 7 6 6 9 2 1 3 7 13 8 7 7 1 2 4 8 10 9 6 5 6 7 6 5 6 6 5 4 4 4 4 3 2 1 2 2 2 3 3 4 5 6 6 7 7 10 10 11 10 10 11 9 8 7 6 4 6 5 6 6 8 7 8 9 9 11 11 12 13 14 11 10 10 10 9 10 9 9 10 11 12 12 11 11 11 10 9 9 7
1 2 2 1 2 3 4 5 5 5 4 10 1 5 4 13 12 5 1 1 3 5 8 12 11 10 8 6 5 6 7 4 3 4 4 4 2 2 1 1 2 2 1 1 1 2 3 4 5 7 7 6 7 10 10 11 10 9 10 10 10 8 5 4 5 6 6 6 8 8 8 8 8 9 11 13 13 12 10 10 10 11 11 11 10 11 11 11 11 11 12 12 11 11 9 10 9
1 2 5 4 5 4 3 3 3 3 5 6 4 3 3 6 10 2 4 2 5 10 10 12 13 12 11 3 1 6 7 6 4 6 3 2 2 1 1 3 2 1 2 2 3 3 4 4 6 7 7 5 7 9 10 11 10 9 9 9 10 8 7 6 6 7 7 7 8 8 8 8 8 8 9 10 12 14 11 11 10 11 10 10 10 11 11 11 11 10 10 11 11 12 10 10 9
3 2 3 8 7 4 4 1 2 3 5 5 1 0 6 5 9 0 3 1 3 7 13 15 15 16 15 15 9 5 6 6 6 4 4 2 2 2 2 3 3 2 2 2 2 2 4 4 6 7 6 7 7 8 10 10 9 9 8 9 10 9 9 7 8 8 8 9 8 8 7 7 8 8 9 9 11 12 11 10 11 11 10 10 11 10 10 10 9 10 9 10 10 11 9 9 9
4 3 3 4 6 5 5 3 3 5 4 4 1 1 5 14 16 17 21 16 16 10 9 13 16 17 16 14 13 8 7 6 5 5 4 3 1 3 2 2 2 3 3 4 3 2 2 3 5 6 7 7 7 8 9 9 9 9 9 9 9 8 8 8 8 7 8 8 8 8 8 8 8 8 9 10 11 13 11 10 11 11 10 10 10 10 10 10 10 10 10 11 10 11 10 10 9
6 6 4 4 7 4 5 3 2 3 2 1 2 2 8 12 14 18 18 12 6 8 11 13 13 13 13 13 12 10 8 6 5 5 5 4 3 3 1 2 3 2 2 2 2 2 1 2 3 4 5 6 5 6 7 8 8 8 8 8 8 7 8 8 8 7 7 7 7 8 8 8 8 9 9 10 9 12 11 10 11 11 10 10 11 11 11 10 10 10 10 11 11 10 9 11 10
7 3 6 5 4 3 5 2 5 3 3 1 3 4 4 4 2 2 4 7 8 5 7 6 8 8 8 9 8 7 7 5 4 4 5 6 5 4 4 3 2 1 1 1 1 2 2 3 3 4 4 5 5 6 6 7 7 8 7 7 7 7 7 7 8 7 7 7 7 7 7 7 7 8 8 8 9 11 11 10 10 11 11 11 11 11 9 10 10 9 9 10 9 9 10 10 9
4 2 1 3 8 1 7 2 4 4 5 5 4 5 2 7 11 16 15 9 3 1 4 5 6 5 5 6 7 8 7 7 7 6 6 6 5 4 4 3 3 2 2 1 2 2 2 3 3 3 3 5 6 6 6 7 7 6 7 8 8 7 6 6 6 6 6 7 7 7 7 7 6 6 6 7 8 10 10 10 10 11 11 11 11 11 11 10 10 10 9 9 10 7 9 11 9
5 6 6 3 4 5 3 2 3 2 3 7 2 6 7 10 14 12 1 2 1 3 1 4 6 6 4 7 7 8 8 7 8 7 7 8 7 5 3 4 3 2 1 2 3 2 3 2 3 4 3 3 6 7 7 6 6 7 8 8 8 8 8 9 8 8 7 6 6 7 7 7 6 6 6 6 8 9 9 10 10 11 11 11 11 11 11 11 10 10 9 10 11 9 9 10 9
7 5 4 4 1 4 1 4 1 3 5 5 2 7 8 4 6 4 8 8 9 9 9 5 4 4 8 7 6 7 8 6 4 4 4 3 5 6 5 3 2 3 2 2 2 2 2 2 3 4 4 6 6 6 6 6 7 7 7 8 9 9 8 8 8 7 7 7 7 7 6 6 7 6 5 5 7 9 9 11 9 10 10 11 11 10 11 11 11 10 10 10 10 9 10 9 9
3 2 2 3 3 4 1 0 3 2 5 6 4 7 8 7 11 7 8 8 10 9 8 7 8 7 6 7 7 6 6 7 9 9 7 6 4 4 4 4 3 2 1 1 1 1 1 3 4 4 5 4 4 4 4 4 5 5 5 8 9 8 8 8 8 7 7 8 9 8 8 7 7 7 6 7 7 8 8 9 10 10 10 11 11 11 11 11 11 10 10 9 9 9 10 10 9
1 1 3 1 2 1 5 2 1 0 6 5 4 3 8 7 5 4 10 8 6 6 6 6 5 5 4 5 6 7 7 6 6 6 6 6 5 3 3 4 4 2 1 0 1 1 2 3 3 5 4 3 3 4 5 5 6 5 5 6 7 7 8 8 8 8 8 9 9 9 8 8 8 7 7 8 8 9 9 10 9 10 10 11 11 11 11 11 10 11 9 9 9 10 10 10 9
5 5 4 3 1 2 2 1 2 2 2 2 5 7 2 4 6 5 11 9 4 4 4 5 5 4 2 3 5 4 4 6 5 3 4 4 4 5 3 2 2 2 2 2 2 2 2 2 4 4 5 5 5 5 6 6 6 7 7 8 8 8 9 8 9 9 9 9 9 8 8 8 6 7 8 9 9 9 10 10 11 11 11 11 11 11 10 11 11 11 10 10 9 11 11 10 9
8 10 9 10 8 5 4 5 3 1 3 4 2 10 9 9 6 9 5 1 2 3 4 6 6 7 4 4 4 3 5 6 4 5 5 5 6 5 4 2 2 2 3 3 3 3 4 5 5 4 5 6 6 6 6 7 7 6 9 9 9 8 8 8 9 9 10 10 9 9 9 8 8 8 8 9 10 9 9 11 11 11 12 12 12 12 11 11 11 12 11 8 9 11 11 11 10
Wind_Direction
278 273 208 124 61 27 35 10 280 203 237 241 250 238 246 214 237 193 221 147 221 203 217 139 127 152 241 334 307 326 306 269 273 267 76 30 118 276 214 178 142 137 167 160 167 168 179 183 183 183 183 183 182 181 180 179 182 180 179 182 184 181 187 185 186 186 187 189 189 189 186 187 188 187 187 184 188 188 188 190 186 183 193 192 190 183 202 237 295 269 288 292 331 307 308 324 332
341 173 135 147 104 270 65 38 354 265 236 251 247 244 242 219 200 226 233 207 216 79 107 162 214 234 281 315 308 306 261 227 253 282 309 345 296 13 292 199 162 161 164 158 167 171 178 179 184 184 184 183 182 181 181 180 185 182 183 182 184 185 187 186 187 187 190 187 191 192 191 190 189 190 186 187 189 190 194 194 191 192 191 206 185 190 216 238 209 221 246 292 303 304 310 328 326
350 218 159 139 79 79 61 120 233 226 245 248 244 240 246 224 219 229 233 230 197 132 123 283 278 234 228 220 245 218 290 157 245 262 270 306 317 89 66 183 165 140 160 159 169 174 176 177 182 184 183 183 183 182 182 181 185 186 185 184 185 188 188 190 189 189 194 190 192 194 194 196 192 191 190 188 190 191 196 200 199 195 198 199 207 212 225 243 236 218 265 299 295 297 309 340 331
274 302 213 183 144 131 179 189 248 234 234 243 257 238 236 234 242 239 238 231 211 138 157 220 251 125 242 219 240 109 261 258 208 248 269 290 7 4 81 166 154 137 157 164 174 175 176 171 177 184 184 183 184 183 183 183 184 187 186 187 188 189 190 191 191 192 193 195 196 196 198 198 194 194 193 191 190 194 197 199 201 201 197 207 215 227 237 244 249 258 282 317 287 300 315 335 340
269 119 253 199 142 191 204 218 230 223 237 225 242 249 230 233 239 242 243 229 218 202 184 230 269 154 283 301 118 246 258 190 210 203 279 297 67 8 120 153 162 151 163 174 177 179 177 169 176 183 184 185 182 186 185 185 187 188 188 189 191 191 191 193 195 194 194 197 198 200 201 200 197 196 195 194 196 197 202 202 198 198 203 211 218 226 236 240 253 237 259 265 279 308 321 333 335
180 159 67 194 212 55 214 224 225 228 235 232 240 238 221 227 238 246 251 204 196 214 238 234 249 218 211 201 202 244 275 270 87 225 236 27 36 55 145 157 167 165 167 173 183 180 181 167 177 182 185 185 183 187 188 189 188 190 191 190 192 194 194 194 195 196 197 198 202 201 201 204 200 200 198 196 199 202 203 201 202 205 207 211 216 225 233 242 234 256 249 266 289 306 332 319 319
169 163 158 198 171 211 227 232 239 235 241 232 244 237 231 237 245 256 250 250 147 189 127 219 227 262 265 183 219 237 262 339 275 14 230 78 15 130 152 170 176 174 167 174 183 186 183 171 177 183 187 185 186 189 190 191 191 192 192 192 194 195 196 197 196 195 198 199 203 203 202 203 203 201 198 200 202 204 204 204 205 205 207 210 217 224 231 234 240 239 258 266 277 296 316 313 316
283 249 168 199 217 205 232 241 246 242 248 236 235 249 245 252 283 234 246 235 206 218 162 239 230 249 270 102 276 106 127 216 253 348 16 225 117 163 178 175 188 177 174 175 180 184 172 176 180 187 188 186 188 192 190 193 193 193 193 194 195 196 198 198 199 197 200 201 204 205 204 206 205 203 201 203 206 205 206 206 206 204 207 211 216 222 225 233 234 232 247 264 275 303 300 315 329
179 234 12 246 233 223 242 240 250 247 257 237 242 250 268 267 256 260 247 231 258 245 222 199 196 251 252 237 241 280 271 221 243 300 284 267 249 200 194 195 194 173 176 179 181 178 176 182 186 188 195 190 189 195 192 194 194 195 196 196 197 198 199 199 199 199 200 202 204 206 206 207 205 204 202 206 209 209 206 207 207 207 210 212 217 222 226 232 237 238 242 258 269 291 314 297 350
175 248 206 236 249 241 240 244 246 246 250 245 246 238 238 248 254 249 257 254 244 255 238 80 214 241 274 275 281 263 267 76 305 285 264 316 270 208 209 203 201 172 176 180 181 179 180 178 190 191 198 196 189 197 197 192 196 196 197 199 200 199 200 200 201 201 201 202 205 207 206 209 206 205 205 207 211 211 209 210 209 209 213 214 219 223 229 233 242 253 259 257 265 288 295 290 302
229 203 314 241 236 246 242 251 243 247 246 255 248 240 246 256 255 255 249 260 261 256 244 140 229 241 263 265 261 279 122 251 278 300 12 325 279 223 218 196 192 182 175 179 177 179 180 184 190 196 200 203 195 195 204 195 197 198 200 201 201 201 202 202 202 203 202 203 205 208 208 209 208 206 206 207 209 213 212 212 212 212 213 215 218 225 228 231 238 244 246 255 259 281 286 301 296
240 210 192 241 243 244 249 256 254 255 254 254 254 240 232 251 256 255 257 257 254 251 254 173 250 199 236 256 259 262 224 269 265 336 334 327 247 228 232 186 186 185 177 174 173 180 182 182 188 197 205 206 205 196 204 199 196 197 200 205 202 202 203 204 203 204 205 205 204 208 209 209 209 208 207 208 204 212 212 216 217 214 216 217 220 225 226 229 233 240 244 251 257 275 289 294 340
253 232 236 248 252 253 261 260 260 267 262 250 259 240 243 247 249 254 261 260 263 265 256 222 235 207 261 256 285 280 281 298 46 7 350 320 312 218 216 200 181 182 169 176 178 183 183 185 189 195 201 208 213 208 204 204 196 196 200 202 203 204 205 204 205 206 206 206 206 206 209 210 209 211 211 207 193 199 206 217 220 219 216 218 223 227 229 226 229 230 237 246 253 266 284 301 324
240 228 250 256 256 262 261 263 266 263 254 262 251 266 248 254 253 256 263 264 261 259 265 266 239 236 260 270 261 272 275 39 13 11 21 35 32 284 180 208 177 181 181 186 189 184 184 190 190 194 198 205 209 212 213 210 202 198 199 200 202 202 204 204 206 206 209 206 206 207 209 210 212 211 212 198 186 186 202 217 220 219 218 222 227 230 230 230 228 231 238 241 251 260 273 285 143
246 196 253 257 264 261 257 258 259 263 262 261 263 238 253 242 253 250 249 263 265 277 300 247 241 197 263 221 249 251 358 20 24 1 4 59 80 117 108 212 195 189 185 196 196 189 189 189 192 194 196 201 208 209 210 208 209 203 198 199 199 200 202 201 199 204 207 207 204 205 200 206 212 213 205 193 181 188 199 215 221 223 226 230 230 231 230 230 231 232 236 241 239 247 281 143 103
256 232 242 254 253 255 255 257 261 264 265 262 274 247 268 271 233 248 258 269 280 317 273 265 178 249 320 245 272 316 347 76 30 73 336 59 77 145 185 200 211 199 200 198 199 198 191 192 193 195 198 203 205 209 209 210 205 208 200 198 199 200 201 199 199 200 201 204 203 199 193 196 206 216 197 202 178 186 196 214 215 222 231 236 236 231 232 234 234 231 236 236 233 243 158 131 106
201 246 248 243 255 252 255 259 259 254 278 277 267 239 257 269 106 266 104 271 273 272 257 254 250 233 254 263 298 304 311 109 138 246 229 256 236 222 210 211 201 203 208 208 206 196 197 196 195 195 199 201 204 206 211 210 210 197 203 200 200 200 201 199 198 197 195 194 197 193 186 205 215 219 208 219 191 193 198 201 211 211 225 237 240 239 239 235 236 239 236 236 239 181 133 123 118
199 230 243 249 253 252 255 253 254 276 281 271 272 265 281 275 282 284 293 262 251 262 263 265 241 238 254 268 279 286 286 291 273 292 281 272 253 262 238 206 200 214 198 205 207 201 197 203 202 201 196 198 199 201 206 208 214 201 211 209 204 201 199 198 197 206 200 209 192 197 208 211 215 213 216 211 216 211 198 185 189 206 220 230 238 237 235 234 234 235 235 233 215 151 158 231 182
224 242 244 255 253 265 268 260 263 269 267 271 270 275 275 273 288 294 294 280 279 271 264 262 262 257 250 249 254 262 269 273 275 270 269 262 258 258 257 239 204 213 207 203 201 202 204 202 204 206 204 196 198 201 201 207 212 209 210 214 213 209 210 199 212 209 211 208 202 206 209 212 208 214 214 208 219 203 212 170 183 202 215 227 233 236 230 230 231 231 244 73 127 151 207 238 247
227 248 252 254 256 262 240 264 263 263 271 272 273 270 267 270 268 289 266 282 279 266 270 270 266 269 270 268 262 255 258 261 259 259 252 250 251 256 258 247 230 217 223 207 201 192 201 205 205 209 205 195 195 201 200 203 206 208 205 208 211 215 216 212 215 212 212 209 203 204 207 208 206 214 209 138 176 207 198 168 181 194 211 225 233 231 217 213 219 237 278 146 184 212 237 233 240
173 232 250 263 272 259 254 246 250 255 257 263 265 272 272 269 268 264 271 278 266 264 264 267 271 275 279 278 275 270 266 264 244 238 247 248 247 246 254 254 248 240 213 199 203 196 196 205 204 207 203 200 198 199 199 201 200 203 207 205 207 212 212 212 212 214 212 211 204 205 206 203 206 211 215 212 218 218 216 213 203 214 213 219 190 227 218 196 211 218 207 213 229 221 229 232 246
272 239 259 266 263 261 267 255 249 255 257 265 266 269 266 278 268 263 264 259 261 270 278 270 263 270 275 275 273 272 270 273 270 258 257 257 256 252 244 242 237 237 195 228 226 206 197 203 203 200 197 203 200 200 198 196 195 201 203 205 206 208 211 212 213 211 212 213 206 205 203 204 206 210 213 215 212 216 214 209 204 202 207 213 193 223 218 215 216 218 216 216 218 224 223 230 236
250 245 245 251 255 261 264 256 244 237 253 250 256 259 267 262 268 265 263 256 264 271 271 270 271 274 274 274 274 273 270 269 269 266 260 262 262 258 253 253 247 223 214 228 234 221 198 196 200 198 200 202 204 202 196 192 196 200 202 203 204 207 207 210 213 213 211 208 212 204 202 201 204 206 208 211 214 212 214 212 208 205 206 216 211 216 213 211 220 221 216 216 214 218 222 221 222
245 269 271 259 252 253 259 261 258 250 256 260 263 270 256 267 268 268 261 257 267 274 273 271 272 274 273 271 269 267 266 266 265 261 259 258 259 262 259 251 250 241 238 241 238 229 196 199 197 196 205 199 200 197 198 195 194 195 199 200 205 210 204 207 210 210 210 211 211 206 201 202 203 204 205 206 210 212 215 212 209 205 208 215 216 215 211 212 215 220 214 209 209 214 219 216 217
244 256 259 267 267 264 265 267 268 264 257 258 260 261 258 257 260 272 262 271 276 281 278 272 267 263 262 260 260 260 261 258 256 255 252 247 251 256 253 250 248 241 237 235 242 228 205 201 190 200 205 202 199 192 198 200 193 195 194 196 203 203 206 210 209 202 210 211 213 213 200 202 203 203 203 203 205 211 212 210 208 209 209 215 213 216 213 214 213 214 209 204 208 214 210 212 219
222 253 275 280 270 271 267 268 262 258 259 248 256 253 253 252 256 256 270 275 276 267 263 260 257 256 254 254 252 253 255 255 253 253 254 248 242 246 250 243 237 235 231 236 236 229 222 197 195 205 204 202 197 188 200 197 196 193 195 198 200 197 206 208 203 202 208 209 209 209 209 203 203 202 202 202 204 206 206 207 209 211 212 212 211 217 212 216 213 207 209 205 205 211 217 215 218
48 284 280 278 279 279 272 265 268 265 259 241 243 256 256 252 237 261 144 232 242 241 246 252 250 250 250 248 248 249 252 255 254 253 254 251 248 243 250 239 227 234 230 235 237 234 221 188 205 210 204 193 188 196 198 199 195 199 196 195 195 198 203 202 200 204 205 211 210 202 208 209 203 202 201 199 200 202 204 204 209 209 214 211 209 216 213 212 214 211 207 207 206 210 215 204 221
287 289 290 278 274 265 256 253 259 261 261 237 235 254 263 270 254 261 265 257 250 252 253 255 252 250 253 253 253 253 255 258 257 251 251 253 249 246 245 235 226 227 229 233 234 231 220 205 215 207 198 188 192 203 196 198 200 201 195 194 197 197 196 199 199 200 203 209 212 205 204 209 204 202 200 196 199 201 205 205 204 206 211 209 205 211 210 207 213 212 206 217 215 210 215 207 218
287 301 292 285 285 280 265 255 259 228 253 272 244 273 263 245 246 248 250 251 254 255 256 257 258 257 254 257 255 252 251 252 250 247 246 248 249 246 248 235 215 226 233 234 234 224 218 219 214 208 190 189 200 204 197 200 202 201 197 197 196 189 191 194 197 199 201 207 211 209 203 206 205 201 198 198 193 200 204 201 203 205 208 207 200 203 202 197 206 204 200 202 211 213 211 212 198
286 266 271 293 289 279 269 257 287 228 255 110 182 278 282 271 235 241 248 251 250 253 254 253 255 257 254 250 252 250 248 249 250 246 245 245 246 246 245 240 221 224 240 238 232 224 221 199 193 196 189 200 203 202 197 201 204 203 201 200 196 188 191 192 198 200 201 203 208 209 206 207 208 206 197 196 194 200 204 202 204 205 205 203 193 187 200 204 207 204 199 196 202 208 210 214 211
272 300 273 272 290 288 158 207 151 273 165 174 171 272 283 274 265 256 255 255 253 256 258 256 255 256 256 247 249 251 247 243 246 245 243 241 244 245 243 238 233 231 235 239 236 228 222 210 191 199 190 203 196 202 199 202 200 201 199 198 197 193 193 195 195 198 199 201 203 212 210 206 207 207 200 191 191 199 201 204 204 205 199 194 193 195 200 199 207 204 199 202 197 209 214 209 217
265 294 275 253 254 280 269 234 238 266 153 183 217 264 270 270 265 262 261 259 256 257 256 257 258 258 256 249 243 250 251 244 245 249 249 249 246 247 241 239 228 229 236 238 236 226 225 217 181 203 193 202 198 199 201 202 200 200 200 197 197 192 195 196 196 199 198 196 204 211 208 209 207 208 210 193 192 197 202 203 201 199 192 187 196 190 197 200 203 206 203 205 198 206 207 211 213
211 236 275 280 278 291 303 233 177 215 293 214 221 280 288 282 268 249 252 251 248 252 258 259 259 258 257 256 251 249 256 251 248 247 248 246 246 244 236 236 227 226 233 234 235 229 219 215 195 202 201 199 197 199 202 203 201 201 200 197 198 192 197 198 199 200 197 195 207 209 206 207 207 206 209 208 196 198 201 202 199 192 185 190 189 191 196 203 198 200 201 206 214 209 206 213 212
263 197 272 278 283 298 290 289 161 157 217 293 226 252 263 274 278 274 269 257 257 259 263 262 260 259 256 255 252 246 249 252 247 247 246 244 243 236 237 237 234 234 237 235 231 224 225 218 204 202 203 193 195 195 198 200 201 199 198 197 193 196 200 201 200 198 198 195 206 208 204 202 205 209 207 210 211 202 200 199 195 186 182 187 191 191 198 200 200 199 202 198 209 213 209 211 213
306 301 291 286 277 262 276 290 49 312 273 279 283 268 272 273 274 271 266 260 256 260 261 262 261 261 258 254 255 251 249 252 249 246 249 249 243 238 238 241 238 234 233 226 221 224 227 224 207 200 204 195 192 191 192 193 191 192 194 196 196 201 201 203 200 202 196 192 208 208 202 200 202 207 208 207 208 202 197 196 194 184 184 187 190 191 195 194 196 199 205 189 198 216 223 213 217
287 289 286 290 290 292 286 290 305 349 307 295 281 278 286 289 287 282 277 271 265 258 257 259 258 259 259 255 254 250 246 250 250 247 248 250 240 241 239 239 234 233 234 225 223 221 221 222 208 203 201 193 184 186 180 184 185 189 191 192 200 203 202 202 203 206 195 199 210 205 201 200 200 203 205 208 207 206 201 198 194 182 187 188 191 192 195 192 193 195 204 192 185 194 227 217 203
291 277 271 274 284 284 282 282 298 329 301 272 275 281 284 285 283 281 279 277 265 256 255 255 254 253 252 252 251 250 248 249 251 254 255 249 248 247 243 233 230 232 226 220 217 220 217 213 201 209 193 179 181 182 184 184 188 189 194 198 203 195 197 196 200 203 206 206 210 206 201 200 201 201 204 205 209 206 205 200 191 185 188 191 193 197 195 191 191 193 197 193 187 193 202 204 196
264 273 276 280 269 278 285 294 307 209 263 287 289 289 285 281 282 278 277 278 267 257 255 256 255 252 252 252 254 252 253 261 262 257 252 251 244 229 227 227 223 230 223 203 216 216 208 208 210 205 178 189 193 187 184 190 194 192 186 195 192 188 186 191 196 198 200 201 208 207 203 201 202 202 203 205 208 203 201 199 193 186 187 192 195 194 190 185 180 187 187 187 195 199 205 188 181
255 256 271 283 276 274 283 276 15 87 241 287 304 300 293 288 280 279 281 275 266 262 253 255 259 265 261 258 258 261 260 259 258 257 259 254 243 222 219 220 222 229 233 210 218 215 210 208 212 201 192 189 192 186 182 192 190 189 189 184 182 184 192 196 195 192 188 196 200 205 207 204 204 206 204 203 206 206 201 197 194 186 186 186 186 190 187 187 187 190 188 193 181 199 208 172 183
252 243 247 256 286 329 303 156 136 176 265 293 307 295 286 280 276 266 260 264 273 275 264 259 261 266 263 263 269 275 276 275 270 266 265 252 238 232 220 229 233 231 233 236 221 219 216 212 205 199 196 190 189 189 187 185 179 167 140 123 164 176 176 163 169 168 182 191 198 201 212 211 209 209 206 205 208 208 200 198 194 187 185 186 189 189 188 190 187 190 190 198 187 180 200 189 197
220 233 254 268 273 260 235 298 317 306 278 278 286 286 280 273 302 312 292 234 263 268 259 256 251 247 265 279 281 269 270 271 273 274 267 257 239 237 232 232 236 228 226 226 217 212 205 209 203 196 193 189 189 182 179 166 142 141 133 123 135 116 116 171 185 196 196 200 207 203 211 210 209 209 208 206 208 205 201 199 195 186 182 187 190 192 190 192 187 190 189 193 193 195 186 184 183
269 221 226 247 261 274 276 291 322 313 295 106 5 333 310 321 311 306 327 329 307 293 280 302 307 286 272 278 284 288 270 264 264 268 267 265 255 247 238 241 236 231 230 224 216 211 206 204 197 189 186 181 182 177 178 169 172 169 165 170 175 181 187 184 193 193 190 195 201 197 202 201 201 202 201 202 204 203 203 200 194 184 185 184 190 194 190 185 188 192 190 194 196 204 191 175 176
277 282 199 237 253 272 286 291 314 304 314 17 36 298 295 311 308 335 353 331 342 45 56 55 91 187 190 307 310 302 301 292 275 263 261 255 250 242 247 242 226 229 225 144 187 196 193 193 188 184 184 179 174 172 172 169 174 182 184 188 188 187 186 196 194 192 188 189 186 190 192 194 196 197 199 198 200 202 202 199 190 189 186 185 186 191 191 189 188 192 184 195 198 196 193 190 185
258 69 230 232 251 246 264 273 262 270 295 279 206 226 270 299 300 57 336 328 345 134 102 133 161 240 304 316 319 318 319 314 302 291 275 254 245 230 238 207 198 216 125 171 173 176 182 180 174 177 176 175 167 168 174 180 181 185 187 191 194 197 199 184 179 178 177 171 178 180 179 186 193 201 201 200 198 199 198 192 189 188 186 186 183 192 193 190 186 185 187 194 196 195 196 198 189
317 47 189 227 252 272 267 266 280 295 319 308 155 183 259 251 271 296 332 329 20 317 313 325 329 337 335 324 326 315 319 327 316 312 315 301 263 234 211 172 141 156 209 194 174 160 153 155 166 168 172 169 169 174 176 186 189 187 189 191 197 203 193 155 155 163 169 172 180 177 183 185 190 199 204 204 204 201 193 189 184 185 185 186 186 195 197 191 188 181 182 189 195 197 198 203 195
103 112 172 262 246 234 243 259 280 286 296 286 260 175 268 288 274 300 142 175 280 306 326 317 322 325 317 325 329 328 328 323 333 313 307 320 353 33 66 57 168 193 183 172 134 138 142 151 161 166 167 170 167 175 181 185 189 183 189 196 196 193 180 149 163 169 181 179 189 184 185 185 187 192 201 207 206 202 188 187 185 188 189 189 189 196 194 188 186 186 185 190 193 194 197 200 204
73 185 266 242 230 232 189 245 262 269 243 263 81 207 269 301 293 327 326 24 347 321 316 317 318 318 312 271 251 322 327 331 335 343 335 344 18 27 55 183 171 162 173 180 155 161 155 161 165 171 170 165 166 176 182 184 188 191 195 194 193 186 176 171 173 174 181 180 189 187 189 191 187 191 192 202 206 206 190 191 191 192 191 190 188 192 194 190 189 187 185 189 192 194 196 195 198
325 282 319 316 271 170 201 172 190 248 268 105 105 295 218 242 285 203 178 157 268 298 303 309 312 313 313 316 333 344 328 324 325 332 336 332 125 109 160 164 180 158 171 182 178 164 172 169 170 165 166 171 173 177 183 183 185 190 197 195 195 195 180 180 189 182 182 184 188 185 187 186 187 187 189 193 198 196 189 192 191 188 191 191 192 194 195 190 186 186 185 190 195 197 197 193 194
210 231 265 294 292 331 276 160 218 199 271 115 74 238 249 231 245 278 288 286 293 314 318 308 306 305 308 314 325 335 321 313 315 318 315 305 228 159 169 167 188 194 196 185 182 183 176 175 179 171 170 174 176 178 183 184 185 190 194 193 195 194 191 192 196 192 183 187 189 186 183 189 184 188 192 194 195 190 189 189 188 192 193 195 191 191 191 185 185 186 189 190 193 191 195 193 196
181 204 217 250 276 270 266 269 311 294 248 23 170 47 268 272 276 257 261 278 346 324 306 299 298 296 303 312 325 324 315 310 312 304 303 303 307 316 280 201 205 202 197 188 174 192 188 195 192 196 167 172 172 176 182 185 191 192 192 194 195 192 196 196 202 201 189 193 191 190 188 190 190 195 189 197 189 187 191 193 190 193 194 189 188 190 188 186 185 188 189 190 192 192 193 191 201
196 158 201 227 238 248 289 273 282 320 340 237 147 331 262 324 212 331 258 282 286 277 292 318 306 301 309 315 305 318 333 356 346 325 314 308 312 309 306 316 318 296 269 195 189 208 192 202 199 200 171 175 180 181 183 188 191 193 191 195 194 195 196 197 205 207 191 194 194 192 194 196 197 193 193 191 183 185 189 190 191 191 191 188 186 187 187 185 186 190 190 191 193 192 192 190 199
155 160 47 240 234 195 256 2 307 318 320 287 172 228 295 256 320 301 300 309 289 11 347 312 325 338 323 328 2 360 1 356 348 337 326 319 324 319 304 306 305 296 272 263 233 222 212 223 210 212 196 178 184 186 191 194 194 190 193 193 198 197 196 198 205 204 200 198 197 198 199 199 200 190 188 181 183 181 185 189 191 194 190 190 189 189 185 187 185 189 190 191 193 184 187 191 197
150 153 207 203 18 224 256 137 107 193 200 248 198 268 261 276 270 268 205 173 70 150 148 2 355 341 322 23 14 13 8 2 357 344 337 326 325 325 319 309 312 286 253 234 238 225 231 220 211 220 214 187 196 194 193 194 190 188 195 196 197 197 201 202 206 202 199 199 202 205 206 202 196 194 183 177 176 182 186 190 192 193 193 192 190 189 187 188 182 190 193 190 194 185 191 193 198
118 218 182 91 304 4 218 271 164 258 279 282 125 262 288 9 314 99 334 346 354 16 20 359 10 355 27 12 22 13 9 353 338 333 323 329 325 316 314 305 303 303 322 345 310 304 281 279 246 227 215 211 209 201 198 193 190 195 194 198 202 201 203 206 207 202 197 198 204 207 205 198 198 192 181 172 178 181 188 191 194 193 192 191 190 188 188 188 184 194 195 194 194 182 189 195 199
298 18 360 222 182 192 119 257 264 264 265 288 231 267 252 233 267 310 328 353 351 2 7 16 19 12 4 356 2 11 5 12 14 7 1 354 2 338 326 324 326 302 331 324 329 338 267 257 257 264 247 237 223 212 209 205 202 197 198 198 197 198 203 204 206 204 197 200 204 205 202 202 189 184 182 176 182 185 187 188 195 193 191 191 191 191 189 190 189 195 194 195 191 185 189 195 195
78 203 170 41 305 298 165 213 352 22 288 321 267 121 287 184 239 273 297 299 342 349 356 10 355 7 2 351 348 354 359 6 5 3 355 340 325 325 323 324 323 327 342 27 264 194 241 236 231 232 243 254 251 231 218 217 213 211 205 200 202 201 200 201 200 198 203 207 208 203 201 199 196 183 185 182 185 185 187 187 192 194 191 190 191 192 189 191 189 199 193 195 190 185 192 195 194
173 201 195 158 212 346 335 303 218 239 263 263 313 304 258 222 208 237 270 288 315 307 308 327 316 312 314 334 328 323 323 325 343 324 317 323 324 323 308 273 259 252 221 217 212 211 213 215 237 232 233 225 223 217 208 218 206 213 210 208 202 197 200 200 202 202 205 207 208 205 205 204 189 192 184 187 189 188 188 190 188 192 191 189 190 190 188 190 191 197 198 197 186 184 193 199 195
184 180 201 188 158 186 194 230 80 266 219 242 235 274 298 287 137 227 236 96 261 248 249 290 305 306 299 280 278 276 303 311 316 310 321 304 313 316 302 270 242 240 211 196 186 191 200 211 214 209 214 226 221 215 210 211 208 205 207 208 205 201 199 196 199 202 207 207 205 201 200 195 199 195 190 191 191 189 190 190 190 191 192 191 191 190 186 189 192 194 195 190 186 186 194 199 196